PDT,Max TemperatureF,Mean TemperatureF,Min TemperatureF,Max Dew PointF,MeanDew PointF,Min DewpointF,Max Humidity, Mean Humidity, Min Humidity, Max Sea Level PressureIn, Mean Sea Level PressureIn, Min Sea Level PressureIn, Max VisibilityMiles, Mean VisibilityMiles, Min VisibilityMiles, Max Wind SpeedMPH, Mean Wind SpeedMPH, Max Gust SpeedMPH,PrecipitationIn, CloudCover, Events, WindDirDegrees
2013-5-1,86,74,61,34,23,12,29,20,10,30.07,29.98,29.85,10,10,10,17,6,25,0.00,0,,33
2013-5-2,93,74,55,37,31,18,47,28,9,30.16,30.11,30.06,10,10,10,14,4,17,0.00,0,,299
2013-5-3,98,76,53,37,33,25,47,28,9,30.08,29.92,29.79,10,10,10,16,4,21,0.00,0,,266
2013-5-4,90,72,53,48,37,27,67,39,11,29.77,29.64,29.53,10,10,10,18,7,23,0.00,0,,301
2013-5-5,73,64,55,48,46,44,72,57,41,29.80,29.68,29.59,10,10,10,21,8,26,0.00,3,,252
2013-5-6,71,64,57,55,50,46,84,64,44,29.96,29.86,29.81,10,10,8,13,5,16,0.09,7,Rain,293
2013-5-7,74,63,52,52,50,45,86,62,38,30.04,29.99,29.96,10,10,10,17,7,21,0.00,4,,262
2013-5-8,70,61,52,51,49,47,89,68,47,30.15,30.10,30.04,10,10,9,20,10,25,0.00,4,,271
2013-5-9,73,63,52,50,49,48,83,65,47,30.19,30.13,30.08,10,10,10,22,10,25,0.00,4,,278
2013-5-10,78,65,52,54,51,49,89,66,43,30.18,30.14,30.08,10,10,6,18,8,23,0.00,3,,275
2013-5-11,94,73,51,53,49,41,89,55,20,30.14,30.08,30.02,10,10,8,17,5,20,0.00,0,,289
2013-5-12,88,71,54,53,49,45,77,50,22,30.13,30.08,30.01,10,10,10,17,7,21,0.00,0,,283
2013-5-13,85,69,52,54,49,43,83,55,27,30.09,30.01,29.95,10,10,10,17,8,21,0.00,0,,282
2013-5-14,78,66,53,51,48,45,89,63,36,30.01,29.95,29.93,10,10,10,20,10,23,0.00,0,,291
2013-5-15,71,60,49,50,45,38,89,60,31,30.05,30.03,30.01,10,10,10,17,9,28,0.00,2,,247
2013-5-16,70,62,54,54,50,46,93,73,52,30.04,30.01,29.98,10,10,10,22,11,25,0.02,5,Rain,233
2013-5-17,70,61,51,47,45,41,77,57,37,30.09,30.02,29.98,10,10,10,21,11,24,0.00,2,,241
2013-5-18,77,63,49,51,47,42,83,58,33,30.13,30.10,30.07,10,10,10,17,7,22,0.00,2,,244
2013-5-19,86,68,50,49,43,35,83,50,17,30.12,30.05,29.96,10,10,10,18,5,22,0.00,0,,293
2013-5-20,92,72,51,48,38,27,64,38,11,30.00,29.96,29.92,10,10,10,17,5,25,0.00,0,,297
2013-5-21,72,62,51,48,45,39,83,59,34,29.98,29.95,29.91,10,10,10,24,11,28,0.00,0,,245
2013-5-22,68,56,44,44,34,20,80,49,17,30.01,29.96,29.91,10,10,10,20,8,26,0.00,0,,250
2013-5-23,71,60,49,45,42,38,80,58,35,30.01,29.97,29.92,10,9,0,18,9,23,0.00,2,,224
2013-5-24,74,60,46,45,42,36,86,56,25,30.00,29.98,29.95,10,10,9,22,9,26,0.00,0,,267
2013-5-25,69,59,48,49,45,40,83,60,37,30.06,30.01,29.97,10,10,10,18,9,22,0.00,3,,244
2013-5-26,72,63,53,52,50,48,93,69,44,30.14,30.08,30.05,10,10,10,21,13,25,0.00,4,,245
2013-5-27,66,59,52,55,51,48,83,73,63,30.14,30.09,30.00,10,10,10,17,10,22,0.01,7,Rain,244
2013-5-28,72,64,56,56,53,50,93,70,47,30.01,29.97,29.92,10,10,6,21,9,24,0.00,5,,264
2013-5-29,72,63,53,54,50,48,83,64,44,29.96,29.94,29.90,10,10,10,18,10,23,0.00,4,,243
2013-5-30,80,65,49,48,45,41,89,58,27,29.99,29.96,29.93,10,10,10,20,7,23,0.00,0,,275
2013-5-31,92,71,49,47,43,36,83,51,18,30.02,29.96,29.89,10,10,10,17,5,24,0.00,0,,283